Content
SEND FEEDBACK

Daily
Averages
Monthly
Summary
Switzerland

GENEVA, SWITZERLAND


Home > Europe > Switzerland
Elevation: 1364 feet     Latitude: 46 15N     Longitude: 006 08E

WEATHER
 
SELECT A DAY
Number of Records: 305,866;   Date Range: 7/1/96 - 8/12/14
 
SHARE

PRINT THIS DATA

[ ← Previous Day ]
WEATHER ALMANAC - JANUARY 20, 2013
[ Next Day → ]
[ °C ]   °F
Weather ElementAverageHighLow
Temperature33.2 °F35.6 °F (11:50 am)32 °F (12:20 am)
Dewpoint31.4 °F33.8 °F (4:20 pm)26 °F (11:00 pm)
Humidity92.7 %100 % (12:20 am)71 % (11:00 pm)
Barometer29.30 in29.50 in (11:00 pm)29.18 in (12:50 am)
Wind Speed3 mph11.5 mph (9:00 pm)
Wind Gust79.4 mph (3:20 am)
Weather ElementAverage
Visibility2.5 mi
Wind DirectionENE (65.5 °)

Weather ElementTotal
Precipitation---
Heating Degree Days31.2 (Base 65)
Averaged from 66 records on January 20, 2013
WEATHER CONDITIONS BREAKOUT
WIND DIRECTION BREAKOUT
WEATHER BY HOUR - JANUARY 20, 2013
[ °C ]   °F
Local TimeTemperatureDewpointHumidityBarometerVisibilityWind DirectionWind SpeedGust SpeedPrecipitationEventsConditions
12:20 AM32.0 °F32.0 °F100 %29.21 in2.8 miCalmOvercast
12:50 AM32.0 °F32.0 °F100 %29.18 in2.8 miVariable1.2 mphOvercast
1:00 AM32.0 °F31.0 °F96 %29.25 in2.0 miNorth (10°)2.3 mphMist
1:20 AM32.0 °F32.0 °F100 %29.18 in2.8 miVariable2.3 mphOvercast
1:50 AM32.0 °F32.0 °F100 %29.18 in2.8 miVariable1.2 mphOvercast
2:00 AM32.0 °F31.0 °F94 %29.25 inSW (220°)2.3 mph
2:50 AM32.0 °F32.0 °F100 %29.18 in2.5 miVariable2.3 mphOvercast
3:00 AM32.0 °F31.0 °F95 %29.26 inSouth (180°)1.2 mph
3:20 AM32.0 °F32.0 °F100 %29.21 in2.5 miVariable1.2 mph79.4 mphOvercast
3:50 AM32.0 °F32.0 °F100 %29.21 in2.5 miVariable2.3 mphMostly Cloudy
4:20 AM32.0 °F32.0 °F100 %29.21 in2.5 miVariable2.3 mphOvercast
4:50 AM32.0 °F30.2 °F93 %29.18 in2.2 miCalmOvercast
5:00 AM32.0 °F31.0 °F93 %29.26 inNE (40°)1.2 mph
5:20 AM32.0 °F30.2 °F93 %29.18 inVariable2.3 mphOvercast
5:50 AM32.0 °F32.0 °F100 %29.18 in2.2 miCalmOvercast
6:00 AM32.0 °F31.0 °F94 %29.25 inESE (120°)1.2 mph
6:20 AM32.0 °F32.0 °F100 %29.21 in2.2 miVariable2.3 mphOvercast
6:50 AM32.0 °F32.0 °F100 %29.21 in1.9 miVariable2.3 mphOvercast
7:00 AM32.0 °F31.0 °F95 %29.28 in2.0 miNW (320°)1.2 mphMist
7:20 AM32.0 °F32.0 °F100 %29.24 in1.9 miVariable1.2 mphOvercast
7:50 AM32.0 °F32.0 °F100 %29.24 in1.9 miCalmOvercast
8:00 AM33.0 °F31.0 °F90 %29.31 inSE (130°)3.5 mph
8:20 AM32.0 °F32.0 °F100 %29.27 in1.7 miVariable4.6 mphRain-SnowRain
8:50 AM32.0 °F32.0 °F100 %29.27 inVariable3.5 mphRain-SnowLight Rain
9:00 AM33.0 °F31.0 °F90 %29.33 inEast (80°)1.2 mph
9:20 AM32.0 °F32.0 °F100 %29.24 inVariable3.5 mphRain-SnowLight Rain
9:50 AM33.8 °F32.0 °F93 %29.27 in2.2 miVariable1.2 mphOvercast
10:20 AM33.8 °F32.0 °F93 %29.27 in2.2 miVariable1.2 mphMostly Cloudy
10:50 AM33.8 °F32.0 °F93 %29.27 inVariable2.3 mphScattered Clouds
11:00 AM34.0 °F32.0 °F87 %29.33 inNNE (30°)3.5 mph
11:20 AM33.8 °F32.0 °F93 %29.27 in2.2 miVariable1.2 mphMostly Cloudy
11:50 AM35.6 °F32.0 °F87 %29.27 in2.5 miVariable2.3 mphOvercast
12:00 PM35.0 °F31.0 °F81 %29.33 inNNE (20°)2.3 mph
12:20 PM35.6 °F32.0 °F87 %29.27 in2.8 miVariable3.5 mphOvercast
12:50 PM35.6 °F32.0 °F87 %29.27 in2.8 miVariable2.3 mphOvercast
1:00 PM35.0 °F31.0 °F81 %29.32 in3.0 miNorth2.3 mphMist
1:20 PM35.6 °F32.0 °F87 %29.27 in2.8 miVariable2.3 mphOvercast
1:50 PM35.6 °F32.0 °F87 %29.27 in2.8 miVariable1.2 mphOvercast
2:00 PM35.0 °F32.0 °F83 %29.31 inNorth2.3 mph
2:20 PM35.6 °F32.0 °F87 %29.27 in2.8 miVariable3.5 mphOvercast
2:50 PM35.6 °F32.0 °F87 %29.27 in2.8 miVariable1.2 mphOvercast
3:00 PM35.0 °F31.0 °F82 %29.32 inWest (260°)2.3 mph
3:20 PM35.6 °F32.0 °F87 %29.27 in2.5 miVariable2.3 mphRainLight Rain
3:50 PM35.6 °F32.0 °F87 %29.27 inWSW (250°)3.5 mphRainLight Rain
4:20 PM35.6 °F33.8 °F93 %29.27 in1.5 miVariable3.5 mphRain-SnowRain
4:50 PM33.8 °F32.0 °F93 %29.30 in1.6 miVariable1.2 mphRain-SnowRain
5:00 PM34.0 °F33.0 °F96 %29.35 inNNW (340°)1.2 mph
5:20 PM33.8 °F33.8 °F100 %29.30 in1.2 miVariable1.2 mphRain-SnowRain
5:50 PM33.8 °F32.0 °F93 %29.30 in1.6 miVariable2.3 mphRain-SnowLight Rain
6:00 PM35.0 °F33.0 °F89 %29.37 inNNE (30°)2.3 mph
6:20 PM33.8 °F32.0 °F93 %29.33 in1.6 miVariable1.2 mphRain-SnowRain
6:50 PM33.8 °F32.0 °F93 %29.33 in0.9 miVariable1.2 mphRain-SnowRain
7:00 PM33.0 °F32.0 °F95 %29.40 in2.0 miESE (110°)3.5 mphSnowHeavy Snow
7:20 PM32.0 °F32.0 °F100 %29.36 in0.9 miVariable1.2 mphRain-SnowSnow
7:50 PM32.0 °F32.0 °F100 %29.36 in1.2 miSouth (170°)3.5 mphRain-SnowLight Snow
8:00 PM33.0 °F32.0 °F94 %29.43 inSouth (180°)2.3 mph
8:20 PM32.0 °F32.0 °F100 %29.39 in2.2 miCalmSnowLight Snow
8:50 PM32.0 °F32.0 °F100 %29.39 in2.2 miSSW (210°)9.2 mphSnowLight Snow
9:00 PM33.0 °F30.0 °F82 %29.47 inSSW (210°)11.5 mph
9:20 PM32.0 °F30.2 °F93 %29.42 inSSW (210°)8.1 mphSnowLight Snow
9:50 PM32.0 °F30.2 °F93 %29.42 in1.6 miSSW (200°)9.2 mphSnowLight Snow
10:20 PM32.0 °F30.2 °F93 %29.42 in4.3 miSouth (190°)9.2 mphSnowLight Snow
10:50 PM32.0 °F28.4 °F87 %29.42 in6.2 miSSW (200°)10.4 mphMostly Cloudy
11:00 PM32.0 °F26.0 °F71 %29.50 inSSW (200°)11.5 mph
11:20 PM32.0 °F26.6 °F80 %29.44 in6.2 miSSW (200°)10.4 mphMostly Cloudy
11:50 PM32.0 °F26.6 °F80 %29.44 in6.2 miSSW (210°)9.2 mphMostly Cloudy
Hourly data recorded from LSGG, located miles away from Geneva, Switzerland







STORIES FROM OUR PARTNERS